This is the latest recevied weather packets stored in our database for station/object DM3FAM-10. If no packets are shown the sender has not sent any weather packets the latest 10 day(s).
| Time | Temp. | Humidity | Pressure | Rain* | Wind** | Luminosity | Snow |
|---|---|---|---|---|---|---|---|
| 1776927346 | 5.56° C | 100% | 976.9 hPa | - | - | - | - |
| 1776926446 | 3.89° C | 100% | 976.7 hPa | - | - | - | - |
| 1776925546 | 2.78° C | 100% | 976.8 hPa | - | - | - | - |
| 1776924646 | 1.67° C | 100% | 976.6 hPa | - | - | - | - |
| 1776923746 | 1.11° C | 100% | 976.7 hPa | - | - | - | - |
| 1776922846 | 0.56° C | 100% | 976.6 hPa | - | - | - | - |
| 1776921946 | 0.56° C | 100% | 976.5 hPa | - | - | - | - |
| 1776921046 | 0° C | 100% | 976.3 hPa | - | - | - | - |
| 1776920146 | 0° C | 100% | 976.2 hPa | - | - | - | - |
| 1776919246 | 0.56° C | 100% | 976.1 hPa | - | - | - | - |
| 1776918346 | 0° C | 100% | 976 hPa | - | - | - | - |
| 1776917446 | -0.56° C | 100% | 975.9 hPa | - | - | - | - |
| 1776916545 | -0.56° C | 100% | 975.9 hPa | - | - | - | - |
| 1776915646 | 0° C | 100% | 975.8 hPa | - | - | - | - |
| 1776914746 | -0.56° C | 100% | 975.9 hPa | - | - | - | - |
| 1776913845 | -0.56° C | 100% | 975.8 hPa | - | - | - | - |
| 1776912945 | 0° C | 100% | 975.8 hPa | - | - | - | - |
| 1776911144 | 0.56° C | 100% | 975.8 hPa | - | - | - | - |
| 1776910244 | 0° C | 100% | 975.8 hPa | - | - | - | - |
| 1776909344 | 0.56° C | 100% | 975.7 hPa | - | - | - | - |
| 1776908444 | 0° C | 100% | 975.6 hPa | - | - | - | - |
| 1776907544 | 0° C | 100% | 975.6 hPa | - | - | - | - |
| 1776906644 | 0.56° C | 100% | 975.5 hPa | - | - | - | - |
| 1776905744 | 1.11° C | 100% | 975.5 hPa | - | - | - | - |
| 1776904844 | 1.11° C | 100% | 975.5 hPa | - | - | - | - |
* Rain since midnight (hover to see other rain measurements)
** Current wind speed in m/s (hover to see current wind gust speed)